This is the latest recevied weather packets stored in our database for station/object DB0TGO-13. If no packets are shown the sender has not sent any weather packets the latest 10 day(s).
| Time | Temp. | Humidity | Pressure | Rain* | Wind** | Luminosity | Snow |
|---|---|---|---|---|---|---|---|
| 1777563002 | 17.22° C | 41% | 1023.7 hPa | - | - | - | - |
| 1777562102 | 18.33° C | 37% | 1024.1 hPa | - | - | - | - |
| 1777561203 | 18.33° C | 37% | 1024.1 hPa | - | - | - | - |
| 1777560302 | 18.33° C | 38% | 1024.3 hPa | - | - | - | - |
| 1777559402 | 18.33° C | 38% | 1024.3 hPa | - | - | - | - |
| 1777558503 | 18.33° C | 41% | 1024.4 hPa | - | - | - | - |
| 1777557602 | 18.33° C | 41% | 1024.4 hPa | - | - | - | - |
| 1777556702 | 17.78° C | 36% | 1024.8 hPa | - | - | - | - |
| 1777555802 | 17.78° C | 36% | 1024.8 hPa | - | - | - | - |
| 1777554902 | 17.22° C | 37% | 1025 hPa | - | - | - | - |
| 1777554002 | 17.22° C | 37% | 1025 hPa | - | - | - | - |
| 1777553102 | 16.67° C | 37% | 1025.4 hPa | - | - | - | - |
| 1777552202 | 16.67° C | 37% | 1025.4 hPa | - | - | - | - |
| 1777551303 | 16.67° C | 38% | 1025.5 hPa | - | - | - | - |
| 1777550402 | 16.67° C | 38% | 1025.5 hPa | - | - | - | - |
| 1777549502 | 15.56° C | 35% | 1025.8 hPa | - | - | - | - |
| 1777548603 | 15.56° C | 35% | 1025.8 hPa | - | - | - | - |
| 1777547702 | 15° C | 34% | 1026.2 hPa | - | - | - | - |
| 1777546803 | 15° C | 34% | 1026.2 hPa | - | - | - | - |
| 1777545902 | 15° C | 37% | 1026.4 hPa | - | - | - | - |
| 1777545002 | 15° C | 37% | 1026.4 hPa | - | - | - | - |
| 1777544103 | 14.44° C | 37% | 1026.7 hPa | - | - | - | - |
| 1777543202 | 14.44° C | 37% | 1026.7 hPa | - | - | - | - |
| 1777542303 | 13.89° C | 39% | 1026.8 hPa | - | - | - | - |
| 1777541402 | 13.89° C | 39% | 1026.8 hPa | - | - | - | - |
* Rain since midnight (hover to see other rain measurements)
** Current wind speed in m/s (hover to see current wind gust speed)